TimePDT,TemperatureF,Dew PointF,Humidity,Sea Level PressureIn,VisibilityMPH,Wind Direction,Wind SpeedMPH,Gust SpeedMPH,PrecipitationIn,Events,Conditions,WindDirDegrees,DateUTC
12:15 AM,53.6,48.2,82,30.26,10.0,SW,5.8,-,N/A,,Overcast,220,2013-03-15 07:15:00
12:35 AM,53.6,48.2,82,30.27,10.0,SSW,4.6,-,N/A,,Overcast,200,2013-03-15 07:35:00
12:55 AM,53.6,48.2,82,30.27,10.0,SSW,4.6,-,N/A,,Overcast,200,2013-03-15 07:55:00
1:15 AM,53.6,48.2,82,30.27,10.0,SSW,3.5,-,N/A,,Overcast,200,2013-03-15 08:15:00
1:35 AM,53.6,48.2,82,30.26,10.0,South,5.8,-,N/A,,Overcast,180,2013-03-15 08:35:00
1:55 AM,53.6,48.2,82,30.26,10.0,SSE,3.5,-,N/A,,Overcast,160,2013-03-15 08:55:00
2:15 AM,53.6,50.0,88,30.26,10.0,Calm,Calm,-,N/A,,Overcast,0,2013-03-15 09:15:00
2:35 AM,53.6,50.0,88,30.26,10.0,South,4.6,-,N/A,,Overcast,180,2013-03-15 09:35:00
2:55 AM,51.8,50.0,94,30.26,10.0,SSE,3.5,-,N/A,,Overcast,150,2013-03-15 09:55:00
3:15 AM,51.8,50.0,94,30.25,10.0,Calm,Calm,-,N/A,,Overcast,0,2013-03-15 10:15:00
3:35 AM,53.6,50.0,88,30.25,10.0,Calm,Calm,-,N/A,,Overcast,0,2013-03-15 10:35:00
3:55 AM,51.8,50.0,94,30.25,10.0,Calm,Calm,-,N/A,,Overcast,0,2013-03-15 10:55:00
4:15 AM,51.8,50.0,94,30.25,10.0,Calm,Calm,-,N/A,,Overcast,0,2013-03-15 11:15:00
4:35 AM,51.8,50.0,94,30.25,10.0,Calm,Calm,-,N/A,,Overcast,0,2013-03-15 11:35:00
4:55 AM,51.8,50.0,94,30.24,10.0,Calm,Calm,-,N/A,,Overcast,0,2013-03-15 11:55:00
5:15 AM,51.8,50.0,94,30.24,10.0,ESE,3.5,-,N/A,,Overcast,120,2013-03-15 12:15:00
5:35 AM,51.8,50.0,94,30.25,10.0,Calm,Calm,-,N/A,,Overcast,0,2013-03-15 12:35:00
5:55 AM,51.8,50.0,94,30.25,10.0,Calm,Calm,-,N/A,,Overcast,0,2013-03-15 12:55:00
6:15 AM,51.8,50.0,94,30.25,10.0,Calm,Calm,-,N/A,,Overcast,0,2013-03-15 13:15:00
6:35 AM,51.8,50.0,94,30.24,9.0,Calm,Calm,-,N/A,,Overcast,0,2013-03-15 13:35:00
6:55 AM,51.8,50.0,94,30.24,10.0,Calm,Calm,-,N/A,,Overcast,0,2013-03-15 13:55:00
7:15 AM,51.8,50.0,94,30.24,10.0,Calm,Calm,-,N/A,,Overcast,0,2013-03-15 14:15:00
7:35 AM,51.8,50.0,94,30.24,10.0,Calm,Calm,-,N/A,,Overcast,0,2013-03-15 14:35:00
7:55 AM,51.8,50.0,94,30.24,10.0,Calm,Calm,-,N/A,,Overcast,0,2013-03-15 14:55:00
8:15 AM,51.8,51.8,100,30.25,10.0,Calm,Calm,-,N/A,,Overcast,0,2013-03-15 15:15:00
8:35 AM,51.8,51.8,100,30.25,10.0,Calm,Calm,-,N/A,,Overcast,0,2013-03-15 15:35:00
8:55 AM,51.8,51.8,100,30.25,10.0,NNE,3.5,-,N/A,,Overcast,20,2013-03-15 15:55:00
9:15 AM,53.6,51.8,94,30.25,10.0,NE,3.5,-,N/A,,Overcast,40,2013-03-15 16:15:00
9:35 AM,53.6,51.8,94,30.26,10.0,Calm,Calm,-,N/A,,Overcast,0,2013-03-15 16:35:00
9:55 AM,53.6,51.8,94,30.26,10.0,WNW,4.6,-,N/A,,Overcast,300,2013-03-15 16:55:00
10:15 AM,53.6,51.8,94,30.27,8.0,WNW,3.5,-,N/A,,Overcast,290,2013-03-15 17:15:00
10:35 AM,53.6,51.8,94,30.27,9.0,West,4.6,-,N/A,,Overcast,280,2013-03-15 17:35:00
10:55 AM,53.6,51.8,94,30.27,0.8,West,5.8,-,N/A,,Overcast,280,2013-03-15 17:55:00
11:15 AM,51.8,50.0,94,30.27,5.0,West,3.5,-,N/A,,Overcast,280,2013-03-15 18:15:00
11:35 AM,53.6,51.8,94,30.27,10.0,West,3.5,-,N/A,,Overcast,270,2013-03-15 18:35:00
11:55 AM,53.6,51.8,94,30.26,10.0,Calm,Calm,-,N/A,,Overcast,0,2013-03-15 18:55:00
12:15 PM,55.4,51.8,88,30.26,10.0,WNW,3.5,-,N/A,,Overcast,290,2013-03-15 19:15:00
12:35 PM,55.4,51.8,88,30.26,10.0,West,4.6,-,N/A,,Overcast,280,2013-03-15 19:35:00
12:55 PM,55.4,51.8,88,30.26,10.0,West,8.1,-,N/A,,Overcast,260,2013-03-15 19:55:00
1:15 PM,55.4,51.8,88,30.27,10.0,West,8.1,-,N/A,,Overcast,280,2013-03-15 20:15:00
1:35 PM,53.6,51.8,94,30.27,10.0,West,9.2,-,N/A,,Overcast,270,2013-03-15 20:35:00
1:55 PM,53.6,51.8,94,30.27,10.0,West,8.1,-,N/A,,Overcast,270,2013-03-15 20:55:00
2:15 PM,53.6,53.6,100,30.26,10.0,West,9.2,-,N/A,,Overcast,270,2013-03-15 21:15:00
2:35 PM,53.6,51.8,94,30.26,10.0,West,6.9,-,N/A,,Overcast,270,2013-03-15 21:35:00
2:55 PM,53.6,51.8,94,30.26,10.0,West,8.1,-,N/A,,Overcast,270,2013-03-15 21:55:00
3:15 PM,55.4,51.8,88,30.25,10.0,WSW,5.8,-,N/A,,Mostly Cloudy,250,2013-03-15 22:15:00
3:35 PM,55.4,51.8,88,30.25,10.0,West,6.9,-,N/A,,Partly Cloudy,280,2013-03-15 22:35:00
3:55 PM,57.2,51.8,82,30.25,10.0,West,5.8,-,N/A,,Clear,270,2013-03-15 22:55:00
4:15 PM,55.4,51.8,88,30.26,10.0,West,10.4,-,N/A,,Clear,280,2013-03-15 23:15:00
4:35 PM,55.4,51.8,88,30.26,10.0,WNW,9.2,-,N/A,,Clear,290,2013-03-15 23:35:00
4:55 PM,53.6,51.8,94,30.27,10.0,WNW,9.2,-,N/A,,Mostly Cloudy,300,2013-03-15 23:55:00
5:15 PM,53.6,51.8,94,30.26,10.0,WNW,9.2,-,N/A,,Overcast,300,2013-03-16 00:15:00
5:35 PM,51.8,50.0,94,30.26,3.0,WNW,6.9,-,N/A,,Overcast,290,2013-03-16 00:35:00
5:55 PM,50.0,50.0,100,30.26,3.0,NNW,3.5,-,N/A,,Overcast,330,2013-03-16 00:55:00
6:15 PM,50.0,50.0,100,30.26,1.5,WNW,4.6,-,N/A,,Overcast,290,2013-03-16 01:15:00
6:35 PM,50.0,48.2,94,30.25,3.0,WNW,3.5,-,N/A,,Overcast,290,2013-03-16 01:35:00
6:55 PM,48.2,48.2,100,30.26,1.5,WNW,9.2,-,N/A,,Overcast,300,2013-03-16 01:55:00
7:15 PM,48.2,46.4,93,30.26,0.8,WNW,6.9,-,N/A,,Overcast,300,2013-03-16 02:15:00
7:35 PM,48.2,46.4,93,30.26,3.0,WNW,5.8,-,N/A,,Overcast,300,2013-03-16 02:35:00
7:55 PM,48.2,48.2,100,30.27,1.5,WNW,6.9,-,N/A,,Overcast,300,2013-03-16 02:55:00
8:15 PM,48.2,48.2,100,30.27,1.5,NW,4.6,-,N/A,,Overcast,310,2013-03-16 03:15:00
8:35 PM,48.2,48.2,100,30.26,1.5,WNW,3.5,-,N/A,,Overcast,300,2013-03-16 03:35:00
8:55 PM,48.2,48.2,100,30.26,1.5,Calm,Calm,-,N/A,,Overcast,0,2013-03-16 03:55:00
9:15 PM,48.2,48.2,100,30.27,10.0,NW,3.5,-,N/A,,Overcast,310,2013-03-16 04:15:00
9:35 PM,48.2,46.4,93,30.27,10.0,Calm,Calm,-,N/A,,Overcast,0,2013-03-16 04:35:00
9:55 PM,48.2,48.2,100,30.27,5.0,Calm,Calm,-,N/A,,Overcast,0,2013-03-16 04:55:00
10:55 PM,48.2,48.2,100,30.26,1.5,West,3.5,-,N/A,,Overcast,270,2013-03-16 05:55:00
11:35 PM,48.2,48.2,100,30.26,10.0,Calm,Calm,-,N/A,,Overcast,0,2013-03-16 06:35:00
11:55 PM,48.2,48.2,100,30.26,10.0,West,3.5,-,N/A,,Overcast,260,2013-03-16 06:55:00